Hourly Data Report for October 08, 2016

All times are specified in Local Standard Time (LST). Add 1 hour to adjust for Daylight Saving Time where and when it is observed.

BATHURST A
NEW BRUNSWICK

47°37'47.000" N
65°44'20.000" W
58.80 m
8100505
71574
ZBF

Download Data

Hourly Data (October 2016)
Hourly Data Report for October 8, 2016
Temp Definition
°C
Dew Point Temp Definition
°C
Rel Hum Definition
%
Wind Dir Definition
10's deg

Wind Spd Definition
km/h
Visibility Definition
km
Stn Press Definition
kPa
Hmdx Definition


Wind Chill Definition


Weather Definition


TIME
00:00 Legend Double Dagger 10.2 8.5 89 18 4 24.1 101.39     LegendNANA
01:00 Legend Double Dagger 10.0 8.8 92 36 1 24.1 101.37     LegendNANA
02:00 Legend Double Dagger 8.5 7.9 96 17 6 24.1 101.34     Clear
03:00 Legend Double Dagger 7.4 6.7 95 18 3 24.1 101.27     LegendNANA
04:00 Legend Double Dagger 5.5 5.2 98 16 5 24.1 101.23     LegendNANA
05:00 Legend Double Dagger 4.7 4.4 98 20 3 16.1 101.24     Clear
06:00 Legend Double Dagger 3.9 3.6 98 36 3 24.1 101.23     LegendNANA
07:00 Legend Double Dagger 4.0 3.6 97 20 4 24.1 101.24     LegendNANA
08:00 Legend Double Dagger 8.4 7.0 91 19 5 24.1 101.20     Clear
09:00 Legend Double Dagger 12.9 9.2 78 17 8 24.1 101.16     LegendNANA
10:00 Legend Double Dagger 17.1 9.1 59 18 15 24.1 101.09     LegendNANA
11:00 Legend Double Dagger 20.4 9.2 48 18 19 24.1 100.99     Mostly Cloudy
12:00 Legend Double Dagger 20.8 11.0 53 18 20 24.1 100.91     LegendNANA
13:00 Legend Double Dagger 21.8 11.4 51 17 18 24.1 100.83     LegendNANA
14:00 Legend Double Dagger 23.1 9.0 40 19 18 24.1 100.70     Mostly Cloudy
15:00 Legend Double Dagger 22.4 9.7 44 19 16 24.1 100.67     LegendNANA
16:00 Legend Double Dagger 21.0 9.1 46 20 21 24.1 100.65     LegendNANA
17:00 Legend Double Dagger 20.1 9.5 50 20 16 24.1 100.66     Cloudy
18:00 Legend Double Dagger 18.8 9.9 56 19 13 24.1 100.60     LegendNANA
19:00 Legend Double Dagger 17.7 9.9 60 18 14 24.1 100.49     LegendNANA
20:00 Legend Double Dagger 17.1 10.3 64 21 19 24.1 100.54     Cloudy
21:00 Legend Double Dagger 16.6 9.8 64 21 21 24.1 100.52     LegendNANA
22:00 Legend Double Dagger 15.9 9.4 65 20 16 24.1 100.51     LegendNANA
23:00 Legend Double Dagger 15.6 8.9 64 21 18 24.1 100.48     Cloudy

Notes on Data Quality.

Legend

  • E = Estimated
  • M = Missing
  • NA = Not Available
  • ‡ = Partner data that is not subject to review by the National Climate Archives
Date modified: